User: anonymous   Login
Location: Unspecified
(0.0000°N, 0.0000°E)
Time: 19:02:25
(UTC+00:00)
Language:

PLEIADES HR1 - Orbit

View from above orbital plane
View from above orbital plane
View from above satellite
View from above satellite

Ground track
Ground track

The orbit data is extracted from the following two-line orbital elements,

1 38012U 11076F   14325.53089637  .00000784  00000-0  17848-3 0  2831
2 38012 098.1824 038.2374 0001415 076.1433 283.9927 14.58557134156038
Epoch (UTC): 21 November 2014 12:44:29
Eccentricity: 0.0001415
inclination: 98.1824°
perigee height: 697 km
apogee height: 699 km
right ascension of ascending node: 38.2374°
argument of perigee: 76.1433°
revolutions per day: 14.58557134
mean anomaly at epoch: 283.9927°
orbit number at epoch: 15603

The dashed part of the orbit path shows where the satellite is in the earth's shadow,  

DLR